Location: Newark
(44.9333°N, 0.5667°E)
Time: 01:17:42
(UTC+00:00)

UWE-3 - Pass Details

Date: 24 February 2020
Orbit: 585 x 682 km, 97.6° (Epoch: 27 March)

Event Time Altitude Azimuth Distance (km) Brightness Sun altitude
Rises 04:38:48 0° 23° (NNE) 3,041 ? -23.1°
Reaches altitude 10° 04:41:21 10° 36° (NE) 2,128 ? -22.6°
Maximum altitude 04:45:18 27° 94° (E) 1,305 ? -21.9°
Drops below altitude 10° 04:49:15 10° 152° (SSE) 2,119 ? -21.2°
Sets 04:51:46 0° 164° (SSE) 3,025 ? -20.8°
